TimeEST,TemperatureF,Dew PointF,Humidity,Sea Level PressureIn,VisibilityMPH,Wind Direction,Wind SpeedMPH,Gust SpeedMPH,PrecipitationIn,Events,Conditions,WindDirDegrees,DateUTC
12:53 AM,30.9,12.0,46,30.08,10.0,SSW,21.9,31.1,N/A,,Overcast,200,2013-01-19 05:53:00
1:53 AM,33.1,10.9,40,30.08,10.0,SSW,15.0,24.2,N/A,,Overcast,200,2013-01-19 06:53:00
2:53 AM,34.0,10.9,38,30.08,10.0,South,12.7,19.6,N/A,,Partly Cloudy,190,2013-01-19 07:53:00
3:53 AM,34.0,12.0,40,30.04,10.0,South,16.1,21.9,N/A,,Clear,180,2013-01-19 08:53:00
4:53 AM,35.1,12.9,40,30.03,10.0,SSW,15.0,-,N/A,,Clear,200,2013-01-19 09:53:00
5:53 AM,35.1,15.1,44,30.02,10.0,SSW,12.7,-,N/A,,Clear,200,2013-01-19 10:53:00
6:53 AM,36.0,16.0,44,30.01,10.0,South,13.8,-,N/A,,Clear,190,2013-01-19 11:53:00
7:53 AM,36.0,16.0,44,30.00,10.0,South,13.8,20.7,N/A,,Clear,190,2013-01-19 12:53:00
8:53 AM,37.0,17.1,44,30.01,10.0,SSW,15.0,24.2,N/A,,Clear,200,2013-01-19 13:53:00
9:53 AM,39.0,18.0,43,30.01,10.0,SSW,12.7,21.9,N/A,,Clear,200,2013-01-19 14:53:00
10:53 AM,44.1,23.0,43,30.00,10.0,SW,19.6,25.3,N/A,,Clear,230,2013-01-19 15:53:00
11:53 AM,46.0,25.0,44,29.96,10.0,SSW,15.0,29.9,N/A,,Clear,210,2013-01-19 16:53:00
12:53 PM,45.0,26.1,48,29.95,10.0,SW,13.8,-,N/A,,Clear,220,2013-01-19 17:53:00
1:53 PM,48.0,27.0,44,29.92,10.0,SW,11.5,-,N/A,,Clear,230,2013-01-19 18:53:00
2:53 PM,48.9,26.1,41,29.90,10.0,SSW,10.4,20.7,N/A,,Overcast,210,2013-01-19 19:53:00
3:53 PM,48.0,26.1,42,29.88,10.0,SW,11.5,20.7,N/A,,Partly Cloudy,220,2013-01-19 20:53:00
4:53 PM,46.9,25.0,42,29.86,10.0,SSW,12.7,-,N/A,,Clear,210,2013-01-19 21:53:00
5:53 PM,46.9,25.0,42,29.83,10.0,South,10.4,-,N/A,,Scattered Clouds,190,2013-01-19 22:53:00
6:53 PM,46.0,24.1,42,29.79,10.0,SSW,13.8,21.9,N/A,,Mostly Cloudy,200,2013-01-19 23:53:00
7:53 PM,46.0,19.9,35,29.77,10.0,SSW,17.3,24.2,N/A,,Scattered Clouds,200,2013-01-20 00:53:00
8:53 PM,46.9,21.0,36,29.75,10.0,SSW,12.7,-,N/A,,Clear,200,2013-01-20 01:53:00
9:53 PM,48.0,21.0,34,29.73,10.0,South,12.7,19.6,N/A,,Overcast,190,2013-01-20 02:53:00
10:53 PM,48.0,21.0,34,29.69,10.0,SSW,15.0,-,N/A,,Partly Cloudy,200,2013-01-20 03:53:00